sat.trackr.live / text

‹ back to catalog

STARLINK-2510

NORAD 48329 · 2021-036BF

PAYLOAD ACTIVE UNKNOWN

§ Identity

Operator
Country
US
Launch date
2021-04-29
Launch site
AFETR
Launch vehicle
Mass (kg)
RCS (m²)

Purposes: comms

External: N2YO · Heavens-Above · Gunter

§ Orbital elements

Epoch: 2026-09-09T11:07:50.625696Z

Period
94.01 min
Inclination
53.1601°
Eccentricity
0.0001179
Mean motion
15.31700219 rev/d
Perigee alt
469.9 km
Apogee alt
471.5 km
Semi-major
6,848.9 km
B*
5.5115e-5
RAAN
325.7506°
Arg perigee
82.2731°
Mean anomaly
277.8404°
Rev number
29,620

§ Raw data

STARLINK-25101 48329U 21036BF  26252.46378039  .00001346  00000+0  55115-4 0  99992 48329  53.1601 325.7506 0001179  82.2731 277.8404 15.31700219296203

JSON: /api/v1/satellites/48329 · /tle

For live sub-satellite position, see the globe view (requires WebGL).

§ Visibility from observer

Set your observer location to see the next 7 days of passes ≥ 10°. The values pass through the URL so the page stays shareable.

No JS? Fill the form by hand. The geolocation button needs JavaScript.